Back to catalog

CZ-4 DEB

AlivePO
NORAD 26181·DEBRIS·🇨🇳 China

Launched Oct 14, 1999 from Taiyuan Satellite Launch Center

Loading…

Next Passes (next 24 hours)

TLE

FreshSource: Space-Track

Epoch: Sep 13, 2026, 14:00 UTC

1 26181U 99057BT  26256.58372450  .00000393  00000-0  83612-4 0  9992
2 26181  98.6602 122.4913 0013378 187.2540 233.7217 14.64851771410556

Track CZ-4 DEB in real time with AllMySat

Download on the App Store